| time (UTC) | temp F | wind direction | speed MPH | gust MPH | rain 1hr in | rain 24hr in | rain mn in | humidity % | barometer mb |
| 20260904101535 | 73 | 244 | 0.0 | 3.0 | 0.00 | 0.00 | 0.00 | 53 | 1020.7 |
| 20260904100031 | 73 | 214 | 1.0 | 7.0 | 0.00 | 0.00 | 0.00 | 51 | 1020.7 |
| 20260904094529 | 73 | 253 | 0.0 | 7.0 | 0.00 | 0.00 | 0.00 | 51 | 1020.7 |
| 20260904093027 | 73 | 243 | 0.0 | 0.0 | 0.00 | 0.00 | 0.00 | 49 | 1020.8 |
| 20260904091626 | 73 | 247 | 0.0 | 0.0 | 0.00 | 0.00 | 0.00 | 48 | 1020.7 |
| 20260904090025 | 74 | 246 | 0.0 | 0.0 | 0.00 | 0.00 | 0.00 | 45 | 1020.7 |
| 20260904084519 | 75 | 235 | 0.0 | 0.0 | 0.00 | 0.00 | 0.00 | 44 | 1020.7 |
| 20260904083020 | 75 | 254 | 0.0 | 0.0 | 0.00 | 0.00 | 0.00 | 44 | 1020.7 |
| 20260904081516 | 76 | 268 | 0.0 | 1.0 | 0.00 | 0.00 | 0.00 | 41 | 1020.7 |
| 20260904080015 | 76 | 219 | 0.0 | 0.0 | 0.00 | 0.00 | 0.00 | 41 | 1020.7 |
| 20260904074512 | 76 | 229 | 0.0 | 0.0 | 0.00 | 0.00 | 0.00 | 42 | 1020.5 |
| 20260904073011 | 76 | 156 | 0.0 | 0.0 | 0.00 | 0.00 | 0.00 | 43 | 1020.5 |
| 20260904071527 | 76 | 156 | 0.0 | 0.0 | 0.00 | 0.00 | 0.00 | 43 | 1020.4 |
| 20260904070012 | 75 | 157 | 0.0 | 0.0 | 0.00 | 0.00 | 0.00 | 42 | 1020.5 |
| 20260904064506 | 75 | 156 | 0.0 | 0.0 | 0.00 | 0.00 | 0.00 | 41 | 1020.5 |
| 20260904063004 | 75 | 121 | 0.0 | 0.0 | 0.00 | 0.00 | 0.00 | 41 | 1020.4 |
| 20260904061502 | 76 | 121 | 0.0 | 0.0 | 0.00 | 0.00 | 0.00 | 40 | 1020.3 |
| 20260904060113 | 76 | 121 | 0.0 | 0.0 | 0.00 | 0.00 | 0.00 | 40 | 1020.4 |
| 20260904054555 | 76 | 121 | 0.0 | 0.0 | 0.00 | 0.00 | 0.00 | 40 | 1020.2 |
| 20260904053049 | 76 | 39 | 0.0 | 0.0 | 0.00 | 0.00 | 0.00 | 39 | 1020.3 |
| 20260904051546 | 76 | 149 | 0.0 | 0.0 | 0.00 | 0.00 | 0.00 | 39 | 1020.2 |
| 20260904050042 | 77 | 150 | 0.0 | 0.0 | 0.00 | 0.00 | 0.00 | 38 | 1020.1 |
| 20260904044546 | 78 | 149 | 0.0 | 0.0 | 0.00 | 0.00 | 0.00 | 37 | 1020.1 |
| 20260904043034 | 79 | 14 | 0.0 | 0.0 | 0.00 | 0.00 | 0.00 | 35 | 1020.1 |
| 20260904041526 | 80 | 15 | 0.0 | 0.0 | 0.00 | 0.00 | 0.00 | 34 | 1020.2 |
| 20260904040023 | 81 | 14 | 0.0 | 0.0 | 0.00 | 0.00 | 0.00 | 33 | 1020.2 |
| 20260904034522 | 81 | 129 | 0.0 | 0.0 | 0.00 | 0.00 | 0.00 | 33 | 1020.0 |
| 20260904033013 | 80 | 154 | 0.0 | 0.0 | 0.00 | 0.00 | 0.00 | 34 | 1020.0 |
| 20260904031508 | 81 | 324 | 0.0 | 0.0 | 0.00 | 0.00 | 0.00 | 34 | 1019.8 |
| 20260904030004 | 82 | 313 | 0.0 | 0.0 | 0.00 | 0.00 | 0.00 | 33 | 1019.6 |
| 20260904024603 | 82 | 301 | 0.0 | 0.0 | 0.00 | 0.00 | 0.00 | 33 | 1019.3 |
| 20260904023103 | 83 | 297 | 0.0 | 1.0 | 0.00 | 0.00 | 0.00 | 32 | 1019.1 |
| 20260904021551 | 83 | 292 | 1.0 | 9.0 | 0.00 | 0.00 | 0.00 | 32 | 1019.1 |
| 20260904020046 | 84 | 284 | 3.0 | 10.0 | 0.00 | 0.00 | 0.00 | 31 | 1018.8 |
| 20260904014545 | 85 | 278 | 1.0 | 9.0 | 0.00 | 0.00 | 0.00 | 29 | 1018.6 |
| 20260904013036 | 85 | 264 | 0.0 | 1.0 | 0.00 | 0.00 | 0.00 | 26 | 1018.5 |
| 20260904011538 | 86 | 273 | 0.0 | 6.0 | 0.00 | 0.00 | 0.00 | 25 | 1018.4 |
| 20260904010040 | 86 | 257 | 0.0 | 1.0 | 0.00 | 0.00 | 0.00 | 25 | 1018.4 |
| 20260904004523 | 85 | 269 | 6.0 | 10.0 | 0.00 | 0.00 | 0.00 | 30 | 1018.3 |
| 20260904003019 | 86 | 95 | 1.0 | 8.0 | 0.00 | 0.00 | 0.00 | 30 | 1018.2 |
| 20260904001513 | 86 | 109 | 3.0 | 10.0 | 0.00 | 0.00 | 0.00 | 30 | 1018.4 |
| 20260904000009 | 86 | 112 | 2.0 | 10.0 | 0.00 | 0.00 | 0.00 | 31 | 1018.5 |
| 20260903234505 | 87 | 92 | 4.0 | 11.0 | 0.00 | 0.00 | 0.00 | 29 | 1018.5 |
| 20260903233000 | 86 | 116 | 4.0 | 16.0 | 0.00 | 0.00 | 0.00 | 29 | 1018.6 |
| 20260903231556 | 86 | 95 | 9.0 | 18.0 | 0.00 | 0.00 | 0.00 | 31 | 1018.6 |
| 20260903230052 | 85 | 119 | 10.0 | 20.0 | 0.00 | 0.00 | 0.00 | 31 | 1018.6 |
| 20260903224555 | 87 | 113 | 11.0 | 20.0 | 0.00 | 0.00 | 0.00 | 30 | 1018.8 |
| 20260903223121 | 87 | 86 | 16.0 | 27.0 | 0.00 | 0.00 | 0.00 | 30 | 1018.8 |
| 20260903221520 | 87 | 107 | 15.0 | 24.0 | 0.00 | 0.00 | 0.00 | 29 | 1018.7 |
| 20260903214547 | 91 | 94 | 11.0 | 18.0 | 0.00 | 0.00 | 0.00 | 24 | 1018.9 |
| 20260903213011 | 92 | 52 | 1.0 | 7.0 | 0.00 | 0.00 | 0.00 | 22 | 1019.2 |
| 20260903211619 | 90 | 299 | 0.0 | 1.0 | 0.00 | 0.00 | 0.00 | 21 | 1019.2 |
| 20260903210010 | 91 | 236 | 1.0 | 9.0 | 0.00 | 0.00 | 0.00 | 21 | 1019.3 |
| 20260903204604 | 90 | 240 | 1.0 | 9.0 | 0.00 | 0.00 | 0.00 | 21 | 1019.4 |
| 20260903203017 | 92 | 195 | 7.0 | 13.0 | 0.00 | 0.00 | 0.00 | 20 | 1019.5 |
| 20260903201610 | 91 | 219 | 6.0 | 10.0 | 0.00 | 0.00 | 0.00 | 20 | 1019.6 |
| 20260903194548 | 91 | 246 | 1.0 | 12.0 | 0.00 | 0.00 | 0.00 | 21 | 1020.1 |
| 20260903193008 | 91 | 268 | 0.0 | 10.0 | 0.00 | 0.00 | 0.00 | 21 | 1020.4 |
| 20260903191601 | 90 | 223 | 0.0 | 9.0 | 0.00 | 0.00 | 0.00 | 21 | 1020.6 |
| 20260903184628 | 88 | 297 | 0.0 | 4.0 | 0.00 | 0.00 | 0.00 | 23 | 1021.3 |
| 20260903183010 | 88 | 270 | 3.0 | 10.0 | 0.00 | 0.00 | 0.00 | 23 | 1021.6 |
| 20260903181555 | 88 | 260 | 3.0 | 8.0 | 0.00 | 0.00 | 0.00 | 22 | 1022.0 |
| 20260903174604 | 87 | 33 | 0.0 | 1.0 | 0.00 | 0.00 | 0.00 | 25 | 1022.4 |
| 20260903173021 | 87 | 10 | 0.0 | 1.0 | 0.00 | 0.00 | 0.00 | 24 | 1022.5 |
| 20260903171607 | 86 | 311 | 0.0 | 1.0 | 0.00 | 0.00 | 0.00 | 24 | 1022.6 |
| 20260903164553 | 85 | 249 | 0.0 | 0.0 | 0.00 | 0.00 | 0.00 | 26 | 1022.7 |
| 20260903163010 | 83 | 243 | 0.0 | 1.0 | 0.00 | 0.00 | 0.00 | 27 | 1022.6 |
| 20260903161558 | 84 | 56 | 0.0 | 1.0 | 0.00 | 0.00 | 0.00 | 27 | 1022.7 |
| 20260903154531 | 80 | 235 | 0.0 | 6.0 | 0.00 | 0.00 | 0.00 | 30 | 1022.7 |
| 20260903153118 | 80 | 37 | 0.0 | 1.0 | 0.00 | 0.00 | 0.00 | 31 | 1022.7 |
| 20260903151549 | 78 | 74 | 0.0 | 0.0 | 0.00 | 0.00 | 0.00 | 33 | 1022.8 |
| 20260903150028 | 76 | 41 | 0.0 | 0.0 | 0.00 | 0.00 | 0.00 | 36 | 1022.9 |
| 20260903144522 | 74 | 10 | 0.0 | 0.0 | 0.00 | 0.00 | 0.00 | 40 | 1022.9 |
| 20260903143018 | 72 | 29 | 0.0 | 1.0 | 0.00 | 0.00 | 0.00 | 42 | 1022.9 |
| 20260903141518 | 70 | 43 | 0.0 | 0.0 | 0.00 | 0.00 | 0.00 | 50 | 1022.9 |
| 20260903140010 | 66 | 101 | 0.0 | 0.0 | 0.00 | 0.00 | 0.00 | 55 | 1022.8 |
| 20260903134505 | 64 | 17 | 0.0 | 0.0 | 0.00 | 0.00 | 0.00 | 55 | 1022.6 |
| 20260903133100 | 66 | 342 | 0.0 | 0.0 | 0.00 | 0.00 | 0.00 | 51 | 1022.5 |
| 20260903133003 | 66 | 346 | 0.0 | 0.0 | 0.00 | 0.00 | 0.00 | 51 | 1022.5 |
| 20260903131600 | 67 | 121 | 0.0 | 0.0 | 0.00 | 0.00 | 0.00 | 49 | 1022.2 |
| 20260903130107 | 65 | 121 | 0.0 | 0.0 | 0.00 | 0.00 | 0.00 | 53 | 1022.0 |
| 20260903124547 | 65 | 114 | 0.0 | 0.0 | 0.00 | 0.00 | 0.00 | 52 | 1021.9 |
| 20260903123042 | 0 | 0.0 | 0.0 | 0.00 | 0.00 | 0.00 | 1021.8 | ||
| 20260903121541 | 0 | 0.0 | 0.0 | 0.00 | 0.00 | 0.00 | 1021.6 | ||
| 20260903120034 | 0 | 0.0 | 0.0 | 0.00 | 0.00 | 0.00 | 1021.5 | ||
| 20260903114530 | 0 | 0.0 | 0.0 | 0.00 | 0.00 | 0.00 | 1021.5 | ||
| 20260903113029 | 0 | 0.0 | 0.0 | 0.00 | 0.00 | 0.00 | 1021.3 | ||
| 20260903111537 | 0 | 0.0 | 0.0 | 0.00 | 0.00 | 0.00 | 1021.3 | ||
| 20260903110017 | -90 | 98 | 0.0 | 0.0 | 0.00 | 0.00 | 0.00 | 50 | 1021.1 |
| 20260903104515 | 67 | 74 | 0.0 | 0.0 | 0.00 | 0.00 | 0.00 | 50 | 1021.0 |
| 20260903103011 | 67 | 49 | 0.0 | 0.0 | 0.00 | 0.00 | 0.00 | 48 | 1021.1 |